When you browse on this site, cookies collect data to enhance your experience and personalize the content and advertising you see.
Visit our Privacy Policy to learn more. By continuing to use the site, you agree to this use of cookies and data.
  • In Germany
  • List of Countries
  • For 7 days
  • Water Temperature
  • Weather Map
  • Weather Widgets
  • user-avatar
    Login

    Hourly Weather Sydney

    Today, 22 August, Thursday

    Time Temperature Precipitation Wind Pressure Humidity
    00:00 +12°C° 0 mm 5 mps 759 mmHg 64%
    01:00 +10°C° 0 mm 5 mps 758 mmHg 66%
    02:00 +10°C° 0 mm 5 mps 758 mmHg 67%
    03:00 +11°C° 0 mm 4 mps 758 mmHg 69%
    04:00 +11°C° 0 mm 3 mps 757 mmHg 70%
    05:00 +11°C° 0 mm 4 mps 757 mmHg 68%
    06:00 +10°C° 0 mm 5 mps 757 mmHg 66%
    07:00 +10°C° 0 mm 6 mps 757 mmHg 65%
    08:00 +12°C° 0 mm 7 mps 757 mmHg 55%
    09:00 +16°C° 0 mm 8 mps 758 mmHg 45%
    10:00 +18°C° 0 mm 8 mps 758 mmHg 38%
    11:00 +18°C° 0 mm 9 mps 758 mmHg 37%
    12:00 +17°C° 0 mm 9 mps 759 mmHg 36%
    13:00 +17°C° 0 mm 10 mps 759 mmHg 35%
    14:00 +16°C° 0 mm 11 mps 760 mmHg 38%
    15:00 +14°C° 0 mm 11 mps 760 mmHg 41%
    16:00 +14°C° 0 mm 11 mps 761 mmHg 42%
    17:00 +13°C° 0 mm 11 mps 762 mmHg 43%
    18:00 +12°C° 0 mm 10 mps 763 mmHg 44%
    19:00 +12°C° 0 mm 10 mps 764 mmHg 45%
    20:00 +11°C° 0 mm 9 mps 765 mmHg 47%
    21:00 +10°C° 0 mm 9 mps 766 mmHg 49%
    22:00 +10°C° 0 mm 7 mps 766 mmHg 50%
    23:00 +9°C° 0 mm 7 mps 766 mmHg 50%

    Tomorrow, 23 August, Friday

    Time Temperature Precipitation Wind Pressure Humidity
    00:00 +8°C° 0 mm 7 mps 766 mmHg 49%
    01:00 +6°C° 0 mm 7 mps 767 mmHg 49%
    02:00 +5°C° 0 mm 6 mps 767 mmHg 51%
    03:00 +5°C° 0 mm 6 mps 767 mmHg 53%
    04:00 +5°C° 0 mm 5 mps 767 mmHg 55%
    05:00 +5°C° 0 mm 5 mps 767 mmHg 56%
    06:00 +5°C° 0 mm 5 mps 768 mmHg 57%
    07:00 +3°C° 0 mm 5 mps 768 mmHg 59%
    08:00 +7°C° 0 mm 4 mps 768 mmHg 53%
    09:00 +11°C° 0 mm 4 mps 768 mmHg 48%
    10:00 +14°C° 0 mm 3 mps 769 mmHg 43%
    11:00 +16°C° 0 mm 2 mps 768 mmHg 39%
    12:00 +18°C° 0 mm 2 mps 768 mmHg 36%
    13:00 +20°C° 0 mm 1 mps 767 mmHg 32%
    14:00 +19°C° 0 mm 2 mps 767 mmHg 31%
    15:00 +19°C° 0 mm 2 mps 766 mmHg 30%
    16:00 +19°C° 0 mm 3 mps 766 mmHg 29%
    17:00 +17°C° 0 mm 3 mps 766 mmHg 43%
    18:00 +13°C° 0 mm 4 mps 766 mmHg 57%
    19:00 +11°C° 0 mm 4 mps 767 mmHg 71%
    20:00 +11°C° 0 mm 4 mps 767 mmHg 72%
    21:00 +10°C° 0 mm 4 mps 767 mmHg 73%
    22:00 +8°C° 0 mm 4 mps 767 mmHg 75%
    23:00 +8°C° 0 mm 4 mps 766 mmHg 72%

    Day after tomorrow, 24 August, Saturday

    Time Temperature Precipitation Wind Pressure Humidity
    00:00 +7°C° 0 mm 4 mps 766 mmHg 70%
    01:00 +6°C° 0 mm 4 mps 765 mmHg 67%
    02:00 +7°C° 0 mm 3 mps 765 mmHg 66%
    03:00 +5°C° 0 mm 3 mps 765 mmHg 66%
    04:00 +5°C° 0 mm 3 mps 764 mmHg 65%
    05:00 +5°C° 0 mm 3 mps 764 mmHg 63%
    06:00 +5°C° 0 mm 3 mps 764 mmHg 62%
    07:00 +5°C° 0 mm 3 mps 765 mmHg 60%
    08:00 +10°C° 0 mm 4 mps 764 mmHg 49%
    09:00 +13°C° 0 mm 4 mps 764 mmHg 37%
    10:00 +18°C° 0 mm 4 mps 764 mmHg 26%
    11:00 +20°C° 0 mm 3 mps 763 mmHg 23%
    12:00 +22°C° 0 mm 3 mps 762 mmHg 20%
    13:00 +26°C° 0 mm 3 mps 761 mmHg 17%
    14:00 +25°C° 0 mm 3 mps 761 mmHg 19%
    15:00 +25°C° 0 mm 4 mps 761 mmHg 21%
    16:00 +25°C° 0 mm 5 mps 760 mmHg 23%
    17:00 +22°C° 0 mm 5 mps 761 mmHg 29%
    18:00 +20°C° 0 mm 5 mps 761 mmHg 35%
    19:00 +17°C° 0 mm 5 mps 762 mmHg 40%
    20:00 +17°C° 0 mm 4 mps 761 mmHg 46%
    21:00 +14°C° 0 mm 4 mps 761 mmHg 52%
    22:00 +13°C° 0 mm 3 mps 761 mmHg 58%
    23:00 +13°C° 0 mm 3 mps 761 mmHg 62%

    25 August, Sunday

    Time Temperature Precipitation Wind Pressure Humidity
    00:00 +12°C° 0 mm 3 mps 761 mmHg 65%
    01:00 +12°C° 0 mm 2 mps 761 mmHg 69%
    02:00 +12°C° 0 mm 2 mps 761 mmHg 70%
    03:00 +10°C° 0 mm 3 mps 761 mmHg 72%
    04:00 +10°C° 0 mm 3 mps 760 mmHg 74%
    05:00 +10°C° 0 mm 3 mps 761 mmHg 73%
    06:00 +10°C° 0 mm 3 mps 761 mmHg 72%
    07:00 +8°C° 0 mm 4 mps 761 mmHg 71%
    08:00 +13°C° 0 mm 4 mps 761 mmHg 57%
    09:00 +17°C° 0 mm 4 mps 761 mmHg 43%
    10:00 +20°C° 0 mm 4 mps 761 mmHg 29%
    11:00 +22°C° 0 mm 3 mps 760 mmHg 25%
    12:00 +25°C° 0 mm 3 mps 760 mmHg 22%
    13:00 +27°C° 0 mm 3 mps 760 mmHg 19%
    14:00 +23°C° 0 mm 4 mps 760 mmHg 32%
    15:00 +21°C° 0 mm 6 mps 760 mmHg 45%
    16:00 +17°C° 0 mm 8 mps 760 mmHg 58%
    17:00 +16°C° 0 mm 7 mps 761 mmHg 64%
    18:00 +15°C° 0 mm 7 mps 761 mmHg 70%
    19:00 +14°C° 0 mm 7 mps 762 mmHg 75%
    20:00 +14°C° 0.2 mm 6 mps 763 mmHg 77%
    21:00 +13°C° 0.2 mm 6 mps 763 mmHg 79%
    22:00 +13°C° 0.2 mm 6 mps 764 mmHg 81%
    23:00 +11°C° 0.5 mm 6 mps 764 mmHg 82%

    26 August, Monday

    Time Temperature Precipitation Wind Pressure Humidity
    00:00 +12°C° 0.5 mm 5 mps 764 mmHg 83%
    01:00 +10°C° 0.5 mm 5 mps 764 mmHg 84%
    02:00 +10°C° 0.3 mm 5 mps 764 mmHg 84%
    03:00 +10°C° 0.3 mm 5 mps 764 mmHg 85%
    04:00 +10°C° 0.3 mm 6 mps 764 mmHg 85%
    05:00 +10°C° 0.3 mm 5 mps 764 mmHg 84%
    06:00 +10°C° 0.3 mm 5 mps 765 mmHg 83%
    07:00 +10°C° 0.3 mm 5 mps 765 mmHg 83%
    08:00 +10°C° 0.1 mm 5 mps 765 mmHg 80%
    09:00 +12°C° 0.1 mm 5 mps 766 mmHg 77%
    10:00 +12°C° 0.1 mm 5 mps 766 mmHg 74%
    11:00 +12°C° 0.2 mm 5 mps 766 mmHg 72%
    12:00 +12°C° 0.2 mm 4 mps 765 mmHg 71%
    13:00 +13°C° 0.2 mm 4 mps 765 mmHg 69%
    14:00 +13°C° 0.1 mm 4 mps 765 mmHg 67%
    15:00 +13°C° 0.1 mm 5 mps 765 mmHg 65%
    16:00 +13°C° 0.1 mm 5 mps 765 mmHg 62%
    17:00 +13°C° 0.1 mm 4 mps 765 mmHg 65%
    18:00 +12°C° 0.1 mm 4 mps 766 mmHg 68%
    19:00 +11°C° 0.1 mm 4 mps 766 mmHg 70%
    20:00 +11°C° 0.1 mm 3 mps 767 mmHg 71%
    21:00 +11°C° 0.1 mm 3 mps 767 mmHg 72%
    22:00 +11°C° 0.1 mm 3 mps 767 mmHg 73%
    23:00 +10°C° 0 mm 3 mps 767 mmHg 73%

    27 August, Tuesday

    Time Temperature Precipitation Wind Pressure Humidity
    00:00 +10°C° 0 mm 3 mps 767 mmHg 73%
    01:00 +10°C° 0 mm 3 mps 767 mmHg 73%
    02:00 +9°C° 0 mm 3 mps 767 mmHg 73%
    03:00 +9°C° 0 mm 3 mps 767 mmHg 73%
    04:00 +9°C° 0 mm 3 mps 767 mmHg 74%
    05:00 +9°C° 0.1 mm 3 mps 767 mmHg 75%
    06:00 +9°C° 0.1 mm 3 mps 768 mmHg 76%
    07:00 +9°C° 0.1 mm 3 mps 768 mmHg 77%
    08:00 +10°C° 0.1 mm 3 mps 768 mmHg 72%
    09:00 +12°C° 0.1 mm 3 mps 768 mmHg 68%
    10:00 +13°C° 0.1 mm 3 mps 768 mmHg 64%
    11:00 +13°C° 0.2 mm 3 mps 768 mmHg 66%
    12:00 +13°C° 0.2 mm 3 mps 767 mmHg 68%
    13:00 +13°C° 0.2 mm 3 mps 767 mmHg 70%
    14:00 +14°C° 0 mm 3 mps 767 mmHg 64%
    15:00 +14°C° 0 mm 3 mps 767 mmHg 59%
    16:00 +15°C° 0 mm 4 mps 766 mmHg 54%
    17:00 +14°C° 0 mm 3 mps 767 mmHg 60%
    18:00 +13°C° 0 mm 3 mps 768 mmHg 66%
    19:00 +12°C° 0 mm 2 mps 768 mmHg 72%
    20:00 +12°C° 0 mm 2 mps 768 mmHg 74%
    21:00 +10°C° 0 mm 2 mps 768 mmHg 76%
    22:00 +10°C° 0 mm 2 mps 769 mmHg 78%
    23:00 +10°C° 0.1 mm 2 mps 768 mmHg 79%
    Show more